ANA762 ROAH-RJOO

Flight info

Callsign ANA762
Flight time 1h 32m
Altitude 39000
Route AMAMI Y53 MADOG Y753 IZUMI
Aircraft B78X/H-SDE1E2E3FGHIJ2J3J4J5M1RWXY/LB1D1

Departure

Time 2026-05-04 02:42
Airport Naha International Airport (ROAH)

Arrival

Time 2026-05-04 04:14
Airport Osaka Itami International Airport (RJOO)
Time Latitude Longitude Altitude Speed Heading
2026-05-04 02:01 26.20774 127.64824 27 ft 0 kts 87°
2026-05-04 02:26 26.20774 127.64822 55 ft 1 kts 87°
2026-05-04 02:26 26.20773 127.64808 27 ft 2 kts 86°
2026-05-04 02:26 26.20772 127.64793 27 ft 2 kts 86°
2026-05-04 02:26 26.20771 127.64778 27 ft 2 kts 105°
2026-05-04 02:27 26.20775 127.64764 27 ft 2 kts 126°
2026-05-04 02:27 26.20783 127.64752 24 ft 2 kts 143°
2026-05-04 02:27 26.20791 127.64744 26 ft 0 kts 176°
2026-05-04 02:32 26.20788 127.64744 25 ft 2 kts 177°
2026-05-04 02:32 26.20731 127.64747 28 ft 12 kts 177°
2026-05-04 02:32 26.20639 127.64752 28 ft 14 kts 177°
2026-05-04 02:33 26.20544 127.64756 28 ft 14 kts 178°
2026-05-04 02:33 26.20441 127.64761 28 ft 15 kts 178°
2026-05-04 02:33 26.20335 127.64766 28 ft 15 kts 177°
2026-05-04 02:33 26.20231 127.64771 28 ft 14 kts 178°
2026-05-04 02:34 26.20136 127.64776 28 ft 13 kts 174°
2026-05-04 02:34 26.20047 127.64788 28 ft 13 kts 179°
2026-05-04 02:34 26.19955 127.64785 27 ft 14 kts 179°
2026-05-04 02:34 26.19852 127.64789 27 ft 16 kts 177°
2026-05-04 02:35 26.19736 127.64794 28 ft 18 kts 177°
2026-05-04 02:35 26.19594 127.64801 28 ft 23 kts 178°
2026-05-04 02:35 26.19424 127.64808 28 ft 25 kts 178°
2026-05-04 02:35 26.19256 127.64816 28 ft 23 kts 178°
2026-05-04 02:36 26.19106 127.64824 28 ft 20 kts 178°
2026-05-04 02:36 26.18973 127.64830 28 ft 18 kts 177°
2026-05-04 02:36 26.18860 127.64835 28 ft 14 kts 177°
2026-05-04 02:36 26.18771 127.64839 28 ft 12 kts 178°
2026-05-04 02:37 26.18695 127.64843 28 ft 10 kts 178°
2026-05-04 02:37 26.18623 127.64846 28 ft 11 kts 177°
2026-05-04 02:37 26.18529 127.64851 28 ft 16 kts 178°
2026-05-04 02:37 26.18411 127.64857 28 ft 17 kts 178°
2026-05-04 02:38 26.18304 127.64859 28 ft 14 kts 184°
2026-05-04 02:38 26.18250 127.64813 28 ft 8 kts 250°
2026-05-04 02:38 26.18247 127.64785 28 ft 0 kts 265°
2026-05-04 02:39 26.18247 127.64781 28 ft 4 kts 265°
2026-05-04 02:39 26.18248 127.64705 27 ft 13 kts 282°
2026-05-04 02:39 26.18299 127.64659 27 ft 7 kts 347°
2026-05-04 02:40 26.18328 127.64655 27 ft 0 kts 356°
2026-05-04 02:41 26.18403 127.64651 27 ft 42 kts 357°
2026-05-04 02:41 26.19003 127.64623 30 ft 128 kts 357°
2026-05-04 02:42 26.19689 127.64574 160 ft 164 kts 353°
2026-05-04 02:42 26.20952 127.64456 910 ft 189 kts 356°
2026-05-04 02:42 26.22216 127.64356 2349 ft 181 kts 358°
2026-05-04 02:42 26.23555 127.64269 3204 ft 206 kts 357°
2026-05-04 02:43 26.25101 127.64244 3937 ft 233 kts 359°
2026-05-04 02:43 26.26704 127.63684 4657 ft 256 kts 326°
2026-05-04 02:43 26.28251 127.62634 5452 ft 265 kts 327°
2026-05-04 02:43 26.29884 127.61653 6377 ft 259 kts 326°
2026-05-04 02:44 26.31453 127.60674 7513 ft 261 kts 324°
2026-05-04 02:44 26.33021 127.59657 8668 ft 260 kts 323°
2026-05-04 02:44 26.34573 127.58657 9887 ft 263 kts 323°
2026-05-04 02:44 26.36230 127.57591 10605 ft 285 kts 323°
2026-05-04 02:45 26.37974 127.56476 11315 ft 292 kts 322°
2026-05-04 02:45 26.39483 127.54986 12171 ft 293 kts 301°
2026-05-04 02:45 26.40415 127.52964 13069 ft 296 kts 281°
2026-05-04 02:45 26.40620 127.50680 14012 ft 297 kts 261°
2026-05-04 02:46 26.40067 127.48489 14837 ft 295 kts 243°
2026-05-04 02:46 26.38878 127.46641 15720 ft 296 kts 231°
2026-05-04 02:46 26.37519 127.44869 16572 ft 306 kts 231°
2026-05-04 02:46 26.35991 127.43153 17474 ft 317 kts 221°
2026-05-04 02:47 26.34077 127.41845 18401 ft 330 kts 209°
2026-05-04 02:47 26.31845 127.41069 19221 ft 345 kts 195°
2026-05-04 02:47 26.29396 127.40913 20062 ft 357 kts 187°
2026-05-04 02:47 26.26917 127.40930 20896 ft 364 kts 187°
2026-05-04 02:48 26.24364 127.40967 21759 ft 369 kts 187°
2026-05-04 02:48 26.21765 127.41198 22623 ft 380 kts 177°
2026-05-04 02:48 26.19180 127.41994 23546 ft 392 kts 166°
2026-05-04 02:48 26.16699 127.43375 24346 ft 404 kts 154°
2026-05-04 02:49 26.14487 127.45295 25127 ft 414 kts 143°
2026-05-04 02:49 26.12591 127.47772 25827 ft 427 kts 130°
2026-05-04 02:49 26.11168 127.50713 26563 ft 438 kts 116°
2026-05-04 02:49 26.10325 127.54006 27325 ft 447 kts 102°
2026-05-04 02:50 26.10145 127.57459 28099 ft 452 kts 88°
2026-05-04 02:50 26.10613 127.60935 28899 ft 453 kts 81°
2026-05-04 02:50 26.11220 127.64389 29492 ft 458 kts 81°
2026-05-04 02:50 26.11867 127.67880 30023 ft 464 kts 80°
2026-05-04 02:51 26.12527 127.71417 30505 ft 469 kts 80°
2026-05-04 02:51 26.13176 127.75002 30968 ft 474 kts 81°
2026-05-04 02:51 26.13817 127.78577 31460 ft 478 kts 81°
2026-05-04 02:51 26.14479 127.82226 31939 ft 482 kts 80°
2026-05-04 02:52 26.15150 127.85899 32421 ft 485 kts 80°
2026-05-04 02:52 26.15902 127.89575 32932 ft 488 kts 72°
2026-05-04 02:52 26.17243 127.93044 33421 ft 490 kts 59°
2026-05-04 02:52 26.19188 127.96163 33934 ft 489 kts 46°
2026-05-04 02:53 26.21641 127.98774 34410 ft 485 kts 33°
2026-05-04 02:53 26.24402 128.00803 34851 ft 482 kts 27°
2026-05-04 02:53 26.27264 128.02765 35276 ft 483 kts 26°
2026-05-04 02:53 26.30156 128.04707 35638 ft 486 kts 26°
2026-05-04 02:54 26.33060 128.06653 35994 ft 489 kts 26°
2026-05-04 02:54 26.35982 128.08637 36363 ft 491 kts 26°
2026-05-04 02:54 26.38906 128.10629 36734 ft 493 kts 26°
2026-05-04 02:54 26.41839 128.12617 37104 ft 494 kts 25°
2026-05-04 02:55 26.47738 128.16613 37892 ft 496 kts 25°
2026-05-04 02:55 26.50692 128.18622 38302 ft 497 kts 24°
2026-05-04 02:55 26.53641 128.20626 38695 ft 497 kts 24°
2026-05-04 02:56 26.56592 128.22631 39028 ft 497 kts 24°
2026-05-04 02:56 26.62599 128.26714 39114 ft 512 kts 25°
2026-05-04 02:57 26.68570 128.31266 39146 ft 539 kts 38°
2026-05-04 02:57 26.73535 128.37709 39124 ft 548 kts 47°
2026-05-04 02:58 26.78271 128.44403 39116 ft 549 kts 47°
2026-05-04 02:58 26.83031 128.51090 39131 ft 549 kts 47°
2026-05-04 02:59 26.87806 128.57834 39124 ft 553 kts 47°
2026-05-04 02:59 26.92773 128.64349 39150 ft 544 kts 36°
2026-05-04 02:59 26.95688 128.66879 39137 ft 534 kts 25°
2026-05-04 03:00 26.98902 128.68933 39123 ft 528 kts 21°
2026-05-04 03:00 27.05376 128.72861 39132 ft 530 kts 21°
2026-05-04 03:01 27.11871 128.76798 39123 ft 531 kts 21°
2026-05-04 03:01 27.18364 128.80750 39125 ft 530 kts 21°
2026-05-04 03:02 27.24884 128.84713 39127 ft 534 kts 21°
2026-05-04 03:02 27.31411 128.88697 39125 ft 533 kts 21°
2026-05-04 03:03 27.37914 128.92662 39110 ft 531 kts 21°
2026-05-04 03:03 27.44421 128.96637 39120 ft 535 kts 21°
2026-05-04 03:04 27.50925 129.00620 39120 ft 534 kts 21°
2026-05-04 03:04 27.57462 129.04623 39121 ft 533 kts 21°
2026-05-04 03:05 27.63989 129.08629 39120 ft 533 kts 21°
2026-05-04 03:05 27.70509 129.12634 39104 ft 534 kts 22°
2026-05-04 03:06 27.77004 129.16632 39103 ft 531 kts 21°
2026-05-04 03:06 27.83525 129.20645 39120 ft 537 kts 21°
2026-05-04 03:07 27.90027 129.24663 39119 ft 534 kts 21°
2026-05-04 03:07 27.96560 129.28694 39118 ft 535 kts 21°
2026-05-04 03:08 28.03126 129.32757 39111 ft 540 kts 21°
2026-05-04 03:08 28.09661 129.36809 39099 ft 536 kts 21°
2026-05-04 03:09 28.16203 129.40864 39088 ft 536 kts 21°
2026-05-04 03:09 28.22776 129.44948 39103 ft 541 kts 21°
2026-05-04 03:10 28.29359 129.49047 39091 ft 539 kts 21°
2026-05-04 03:10 28.35943 129.53146 39077 ft 539 kts 21°
2026-05-04 03:11 28.42564 129.57277 39092 ft 543 kts 21°
2026-05-04 03:11 28.48998 129.61794 39079 ft 544 kts 26°
2026-05-04 03:12 28.55338 129.66409 39107 ft 545 kts 26°
2026-05-04 03:12 28.61767 129.71121 39092 ft 549 kts 26°
2026-05-04 03:13 28.68181 129.75819 39094 ft 548 kts 26°
2026-05-04 03:13 28.74603 129.80531 39096 ft 552 kts 26°
2026-05-04 03:14 28.81031 129.85259 39079 ft 549 kts 26°
2026-05-04 03:14 28.87474 129.89995 39081 ft 551 kts 26°
2026-05-04 03:15 28.93926 129.94754 39095 ft 554 kts 26°
2026-05-04 03:15 29.00390 129.99526 39097 ft 552 kts 26°
2026-05-04 03:16 29.06809 130.04271 39079 ft 552 kts 26°
2026-05-04 03:16 29.13267 130.09052 39081 ft 555 kts 26°
2026-05-04 03:17 29.19727 130.13846 39082 ft 553 kts 26°
2026-05-04 03:17 29.26198 130.18649 39096 ft 554 kts 26°
2026-05-04 03:18 29.32696 130.23483 39082 ft 557 kts 26°
2026-05-04 03:18 29.39148 130.28300 39070 ft 554 kts 26°
2026-05-04 03:19 29.45613 130.33118 39070 ft 555 kts 26°
2026-05-04 03:19 29.52095 130.37970 39070 ft 555 kts 26°
2026-05-04 03:20 29.58573 130.42819 39071 ft 556 kts 26°
2026-05-04 03:20 29.65067 130.47690 39061 ft 558 kts 26°
2026-05-04 03:21 29.71506 130.52530 39069 ft 555 kts 26°
2026-05-04 03:21 29.77979 130.57397 39099 ft 556 kts 26°
2026-05-04 03:22 29.84476 130.62294 39075 ft 558 kts 26°
2026-05-04 03:22 29.90971 130.67197 39068 ft 557 kts 26°
2026-05-04 03:23 29.97453 130.72097 39067 ft 558 kts 26°
2026-05-04 03:23 30.03945 130.77013 39067 ft 559 kts 26°
2026-05-04 03:24 30.10455 130.81955 39065 ft 559 kts 26°
2026-05-04 03:24 30.16922 130.86871 39065 ft 559 kts 26°
2026-05-04 03:25 30.23411 130.91810 39036 ft 558 kts 26°
2026-05-04 03:25 30.29901 130.96759 39068 ft 559 kts 26°
2026-05-04 03:26 30.36377 131.01706 39043 ft 560 kts 26°
2026-05-04 03:26 30.42883 131.06682 39042 ft 560 kts 26°
2026-05-04 03:27 30.49400 131.11677 39034 ft 561 kts 26°
2026-05-04 03:27 30.54799 131.15836 39022 ft 560 kts 26°
2026-05-04 03:28 30.62364 131.21658 39055 ft 561 kts 26°
2026-05-04 03:28 30.67822 131.25873 39050 ft 562 kts 26°
2026-05-04 03:29 30.74307 131.30884 39048 ft 562 kts 26°
2026-05-04 03:29 30.80829 131.35933 39030 ft 563 kts 26°
2026-05-04 03:30 30.87340 131.40981 39031 ft 562 kts 26°
2026-05-04 03:30 30.93854 131.46038 39031 ft 562 kts 26°
2026-05-04 03:31 31.00343 131.51086 39035 ft 565 kts 26°
2026-05-04 03:31 31.06874 131.56178 39035 ft 564 kts 26°
2026-05-04 03:32 31.13389 131.61261 39019 ft 563 kts 26°
2026-05-04 03:32 31.19913 131.66362 39016 ft 564 kts 26°
2026-05-04 03:33 31.26434 131.71469 39062 ft 564 kts 26°
2026-05-04 03:33 31.32984 131.76605 39016 ft 566 kts 26°
2026-05-04 03:34 31.39470 131.81695 39006 ft 564 kts 26°
2026-05-04 03:34 31.46050 131.86864 39013 ft 568 kts 26°
2026-05-04 03:35 31.52559 131.91993 39010 ft 567 kts 26°
2026-05-04 03:35 31.59110 131.97158 39023 ft 568 kts 26°
2026-05-04 03:36 31.65660 132.02335 38991 ft 567 kts 26°
2026-05-04 03:36 31.72201 132.07510 38987 ft 568 kts 26°
2026-05-04 03:37 31.78770 132.12719 38998 ft 570 kts 26°
2026-05-04 03:37 31.85338 132.17937 38997 ft 569 kts 26°
2026-05-04 03:38 31.91909 132.23165 38999 ft 571 kts 26°
2026-05-04 03:38 31.98460 132.28386 38996 ft 571 kts 26°
2026-05-04 03:39 32.05031 132.33633 39032 ft 571 kts 26°
2026-05-04 03:39 32.11455 132.39312 38995 ft 586 kts 39°
2026-05-04 03:39 32.14153 132.42942 38995 ft 591 kts 51°
2026-05-04 03:40 32.16425 132.47018 38990 ft 595 kts 54°
2026-05-04 03:40 32.20819 132.55345 38986 ft 600 kts 56°
2026-05-04 03:41 32.25211 132.63718 38961 ft 596 kts 55°
2026-05-04 03:41 32.29558 132.71982 38979 ft 597 kts 55°
2026-05-04 03:42 32.33943 132.80374 38974 ft 599 kts 55°
2026-05-04 03:42 32.38325 132.88753 38970 ft 599 kts 55°
2026-05-04 03:43 32.42710 132.97173 38959 ft 604 kts 55°
2026-05-04 03:43 32.47107 133.05627 38956 ft 599 kts 56°
2026-05-04 03:44 32.51470 133.14037 38957 ft 600 kts 56°
2026-05-04 03:44 32.55833 133.22464 38952 ft 600 kts 56°
2026-05-04 03:45 32.60166 133.30855 38940 ft 596 kts 56°
2026-05-04 03:45 32.64478 133.39220 38954 ft 600 kts 56°
2026-05-04 03:46 32.68762 133.47695 38937 ft 596 kts 57°
2026-05-04 03:46 32.72979 133.56215 38950 ft 598 kts 56°
2026-05-04 03:47 32.77245 133.64723 38925 ft 598 kts 57°
2026-05-04 03:47 32.81445 133.73218 38934 ft 596 kts 57°
2026-05-04 03:48 32.85677 133.81724 38943 ft 601 kts 57°
2026-05-04 03:48 32.89823 133.90133 38916 ft 580 kts 57°
2026-05-04 03:49 32.93898 133.98370 38941 ft 580 kts 57°
2026-05-04 03:49 32.97972 134.06656 38912 ft 575 kts 58°
2026-05-04 03:50 33.02024 134.14896 38906 ft 578 kts 58°
2026-05-04 03:50 33.06324 134.22963 38896 ft 574 kts 45°
2026-05-04 03:50 33.09082 134.26383 38458 ft 568 kts 34°
2026-05-04 03:51 33.12087 134.29453 37672 ft 570 kts 34°
2026-05-04 03:51 33.15130 134.32515 36881 ft 573 kts 35°
2026-05-04 03:51 33.18170 134.35607 36195 ft 576 kts 36°
2026-05-04 03:51 33.21172 134.38702 35480 ft 578 kts 36°
2026-05-04 03:52 33.24229 134.41845 34769 ft 579 kts 36°
2026-05-04 03:52 33.27297 134.44973 34068 ft 580 kts 37°
2026-05-04 03:52 33.30368 134.48114 33375 ft 582 kts 37°
2026-05-04 03:52 33.33455 134.51290 32635 ft 587 kts 37°
2026-05-04 03:53 33.36557 134.54483 31910 ft 589 kts 36°
2026-05-04 03:53 33.39682 134.57694 31195 ft 591 kts 36°
2026-05-04 03:53 33.42791 134.60891 30546 ft 589 kts 36°
2026-05-04 03:53 33.45893 134.64090 29807 ft 588 kts 36°
2026-05-04 03:54 33.48988 134.67285 29021 ft 585 kts 36°
2026-05-04 03:54 33.52069 134.70464 28254 ft 583 kts 36°
2026-05-04 03:54 33.55137 134.73633 27536 ft 579 kts 37°
2026-05-04 03:54 33.58184 134.76774 26814 ft 575 kts 35°
2026-05-04 03:55 33.61427 134.79490 26116 ft 563 kts 25°
2026-05-04 03:55 33.64703 134.81913 25436 ft 559 kts 25°
2026-05-04 03:55 33.68003 134.84327 24767 ft 554 kts 25°
2026-05-04 03:55 33.71292 134.86739 24098 ft 550 kts 25°
2026-05-04 03:56 33.74543 134.89145 23447 ft 546 kts 26°
2026-05-04 03:56 33.77729 134.91507 22683 ft 541 kts 26°
2026-05-04 03:56 33.80924 134.93865 21925 ft 536 kts 26°
2026-05-04 03:56 33.84093 134.96204 21215 ft 531 kts 26°
2026-05-04 03:57 33.87224 134.98523 20493 ft 526 kts 26°
2026-05-04 03:57 33.90327 135.00825 19767 ft 521 kts 26°
2026-05-04 03:57 33.93408 135.03111 19079 ft 516 kts 26°
2026-05-04 03:57 33.96448 135.05366 18405 ft 511 kts 26°
2026-05-04 03:58 34.02447 135.09827 16903 ft 500 kts 26°
2026-05-04 03:58 34.05381 135.12013 16188 ft 494 kts 26°
2026-05-04 03:58 34.08295 135.14182 15454 ft 487 kts 26°
2026-05-04 03:59 34.11123 135.16288 14750 ft 481 kts 26°
2026-05-04 03:59 34.13947 135.18392 14051 ft 474 kts 26°
2026-05-04 03:59 34.16715 135.20466 13299 ft 454 kts 26°
2026-05-04 03:59 34.19326 135.22423 12517 ft 428 kts 26°
2026-05-04 04:00 34.21777 135.24260 11897 ft 402 kts 26°
2026-05-04 04:00 34.24031 135.26099 11373 ft 379 kts 28°
2026-05-04 04:00 34.26169 135.27839 10869 ft 366 kts 28°
2026-05-04 04:00 34.28259 135.29529 10385 ft 362 kts 28°
2026-05-04 04:01 34.30332 135.31225 9902 ft 358 kts 28°
2026-05-04 04:01 34.32376 135.32904 9541 ft 350 kts 28°
2026-05-04 04:01 34.34363 135.34533 9254 ft 339 kts 28°
2026-05-04 04:01 34.36293 135.36113 8990 ft 329 kts 30°
2026-05-04 04:02 34.38112 135.37616 8717 ft 319 kts 28°
2026-05-04 04:02 34.39932 135.39098 8440 ft 309 kts 28°
2026-05-04 04:02 34.41677 135.40526 8166 ft 302 kts 27°
2026-05-04 04:02 34.43366 135.41916 8030 ft 292 kts 27°
2026-05-04 04:03 34.45054 135.43352 8020 ft 296 kts 33°
2026-05-04 04:03 34.46407 135.45308 7779 ft 309 kts 60°
2026-05-04 04:03 34.46885 135.47784 7431 ft 300 kts 95°
2026-05-04 04:03 34.46489 135.50191 7074 ft 288 kts 106°
2026-05-04 04:04 34.46372 135.52538 6710 ft 286 kts 87°
2026-05-04 04:04 34.46678 135.54895 6349 ft 282 kts 77°
2026-05-04 04:04 34.47188 135.57169 5985 ft 277 kts 70°
2026-05-04 04:04 34.47848 135.59328 5633 ft 269 kts 64°
2026-05-04 04:05 34.48610 135.61344 5260 ft 263 kts 60°
2026-05-04 04:05 34.49464 135.63273 4878 ft 255 kts 56°
2026-05-04 04:05 34.50372 135.65072 4524 ft 246 kts 52°
2026-05-04 04:05 34.51332 135.66765 4150 ft 241 kts 49°
2026-05-04 04:06 34.52326 135.68341 3999 ft 230 kts 45°
2026-05-04 04:06 34.53378 135.69851 4024 ft 226 kts 41°
2026-05-04 04:06 34.54622 135.70828 3979 ft 200 kts
2026-05-04 04:06 34.55909 135.70739 3979 ft 180 kts 329°
2026-05-04 04:07 34.56827 135.69878 4008 ft 166 kts 307°
2026-05-04 04:07 34.57610 135.68855 4014 ft 164 kts 305°
2026-05-04 04:07 34.58402 135.67862 4016 ft 165 kts 307°
2026-05-04 04:07 34.59217 135.66887 4013 ft 166 kts 308°
2026-05-04 04:08 34.60029 135.65912 4006 ft 163 kts 308°
2026-05-04 04:08 34.60841 135.64933 4031 ft 164 kts 308°
2026-05-04 04:08 34.61665 135.63943 3797 ft 166 kts 308°
2026-05-04 04:08 34.62475 135.62973 3425 ft 163 kts 308°
2026-05-04 04:09 34.63273 135.62013 3080 ft 160 kts 308°
2026-05-04 04:09 34.64048 135.61081 3028 ft 165 kts 307°
2026-05-04 04:09 34.64894 135.60056 3022 ft 169 kts 308°
2026-05-04 04:09 34.65729 135.59055 3026 ft 167 kts 308°
2026-05-04 04:10 34.66545 135.58074 2935 ft 160 kts 308°
2026-05-04 04:10 34.67336 135.57121 2741 ft 159 kts 308°
2026-05-04 04:10 34.67845 135.56511 2596 ft 155 kts 308°
2026-05-04 04:10 34.68868 135.55276 2328 ft 155 kts 308°
2026-05-04 04:11 34.69622 135.54366 2119 ft 155 kts 307°
2026-05-04 04:11 34.70145 135.53736 1998 ft 158 kts 307°
2026-05-04 04:11 34.71179 135.52487 1704 ft 157 kts 306°
2026-05-04 04:11 34.71931 135.51586 1489 ft 145 kts 306°
2026-05-04 04:12 34.72414 135.51002 1384 ft 149 kts 306°
2026-05-04 04:12 34.73141 135.50114 1178 ft 148 kts 306°
2026-05-04 04:12 34.73869 135.49247 962 ft 145 kts 308°
2026-05-04 04:12 34.74589 135.48414 798 ft 145 kts 307°
2026-05-04 04:13 34.75308 135.47546 669 ft 147 kts 308°
2026-05-04 04:13 34.76040 135.46668 472 ft 148 kts 309°
2026-05-04 04:13 34.76773 135.45757 234 ft 152 kts 308°
2026-05-04 04:13 34.77491 135.44879 66 ft 132 kts 306°
2026-05-04 04:14 34.78036 135.44195 49 ft 94 kts 315°
2026-05-04 04:14 34.78382 135.43799 50 ft 48 kts 325°
2026-05-04 04:14 34.78625 135.43692 48 ft 27 kts 355°
2026-05-04 04:14 34.78782 135.43780 47 ft 27 kts 43°
2026-05-04 04:15 34.78872 135.43885 48 ft 0 kts 44°
2026-05-04 04:16 34.78883 135.43904 50 ft 7 kts 62°
2026-05-04 04:16 34.78860 135.43979 49 ft 13 kts 126°
2026-05-04 04:16 34.78794 135.44068 49 ft 14 kts 131°
2026-05-04 04:16 34.78772 135.44150 50 ft 7 kts 82°
2026-05-04 04:17 34.78790 135.44212 50 ft 9 kts 69°
2026-05-04 04:17 34.78811 135.44275 49 ft 0 kts 68°